Regional Weather Roundup
Issued by NWS

Home | Current Version | Previous Version | Graphics & Text | Print | Product List | Glossary On
Versions: 1 2 3 4 5 6 7 8 9 10 11 12 13 14 15 16 17 18 19 20 21 22 23 24 25 26 27 28 29 30 31 32 33 34 35 36 37 38 39 40 41 42 43 44 45 46 47 48 49 50
000
ASUS45 KPSR 201200
RWRAZ

PRELIMINARY ARIZONA REGIONAL HOURLY WEATHER ROUNDUP
NATIONAL WEATHER SERVICE PHOENIX AZ
500 AM MST SAT SEP 20 2014

NOTE: FAIR INDICATES FEW OR NO CLOUDS BELOW 12,000 FEET WITH NO
SIGNIFICANT WEATHER AND/OR OBSTRUCTIONS TO VISIBILITY.

AZZ001>003-036-201300-
NORTHWEST ARIZONA

CITY           SKY/WX    TMP DP  RH WIND       PRES   REMARKS
KINGMAN        CLOUDY    71  48  43 CALM      29.99S
6HR MIN TEMP:  63; 6HR MAX TEMP:  72;

$$

AZZ004>008-015-016-018-201300-
NORTH CENTRAL ARIZONA

CITY           SKY/WX    TMP DP  RH WIND       PRES   REMARKS
GRAND CANYON   MOCLDY    50  47  89 NE5       30.21S
6HR MIN TEMP:  47; 6HR MAX TEMP:  54;

PRESCOTT       CLEAR     60  48  64 S8        30.11R
6HR MIN TEMP:  58; 6HR MAX TEMP:  66;

FLAGSTAFF        N/A     47  45  93 CALM      30.23S
6HR MIN TEMP:  47; 6HR MAX TEMP:  53;

PAYSON         CLEAR     63  59  88 CALM      30.12S
PAGE           CLEAR     69  49  48 SE3       30.05R
6HR MIN TEMP:  69; 6HR MAX TEMP:  78;

$$

AZZ009>014-017-201300-
NORTHEAST ARIZONA

CITY           SKY/WX    TMP DP  RH WIND       PRES   REMARKS
WINSLOW        NOT AVBL
SAINT JOHNS    CLEAR     60  54  80 S3        30.13R
6HR MIN TEMP:  59; 6HR MAX TEMP:  70;

SHOW LOW       CLEAR     57  55  94 S7        30.20R
$$

AZZ023-201300-
GREATER PHOENIX AREA

CITY           SKY/WX    TMP DP  RH WIND       PRES   REMARKS
PHOENIX        PTCLDY    83  65  54 E6        29.82R
6HR MIN TEMP:  82; 6HR MAX TEMP:  93;

DEER VALLEY    CLEAR     78  62  57 E5        29.84R
6HR MIN TEMP:  78; 6HR MAX TEMP:  84;

SCOTTSDALE     CLEAR     81  64  56 S3        29.87R
6HR MIN TEMP:  80; 6HR MAX TEMP:  88;

MESA-GATEWAY   PTCLDY    79  70  73 E7        29.87R
$$

AZZ027-028-201300-
SOUTHWEST MARICOPA COUNTY AND PINAL COUNTY

CITY           SKY/WX    TMP DP  RH WIND       PRES   REMARKS
CASA GRANDE    CLEAR     77  68  73 CALM      29.86S
6HR MIN TEMP:  77; 6HR MAX TEMP:  82;

$$

AZZ503-504-507>509-201300-
SOUTHEAST ARIZONA

CITY           SKY/WX    TMP DP  RH WIND       PRES   REMARKS
TUCSON         PTCLDY    73  68  84 SE5       29.96R
6HR MIN TEMP:  73; 6HR MAX TEMP:  78;

DAVIS-MONTHAN  PTCLDY    73  68  85 SE3       29.95R
6HR MIN TEMP:  72; 6HR MAX TEMP:  77;

NOGALES        MOCLDY    68  65  90 CALM      30.03R
6HR MIN TEMP:  66; 6HR MAX TEMP:  68;

SIERRA VISTA   MOCLDY    67  63  87 S3        30.08R
6HR MIN TEMP:  66; 6HR MAX TEMP:  69;

SAFFORD        CLEAR     70  66  87 CALM      29.96R
6HR MIN TEMP:  69; 6HR MAX TEMP:  76;

$$

AZZ020-021-025-026-031-201300-
SOUTHWEST ARIZONA

CITY           SKY/WX    TMP DP  RH WIND       PRES   REMARKS
YUMA           PTCLDY    81  71  71 SW3       29.78R
6HR MIN TEMP:  81; 6HR MAX TEMP:  90;

$$

CAZ031-033-041-043-047-048-061-201300-
SOUTHERN CALIFORNIA

CITY           SKY/WX    TMP DP  RH WIND       PRES   REMARKS
DOWNTOWN L.A.  CLEAR     66  61  84 CALM      29.89S
6HR MIN TEMP:  66; 6HR MAX TEMP:  68;

L.A. AIRPORT   PTCLDY    66  62  87 CALM      29.90R
SAN DIEGO      CLOUDY    71  61  70 W3        29.91S
6HR MIN TEMP:  71; 6HR MAX TEMP:  72;

BURBANK        CLEAR     65  59  81 CALM      29.90S
6HR MIN TEMP:  65; 6HR MAX TEMP:  70;

ONTARIO        CLEAR     66  60  81 W7        29.91R
6HR MIN TEMP:  65; 6HR MAX TEMP:  69;

RIVERSIDE      CLEAR     66  60  81 CALM      29.91R
6HR MIN TEMP:  66; 6HR MAX TEMP:  69;

PALM SPRINGS   CLEAR     80  58  46 NW8       29.80S
6HR MIN TEMP:  79; 6HR MAX TEMP:  85;

EL CENTRO NAS  CLEAR     76  56  49 CALM      29.75S
6HR MIN TEMP:  76; 6HR MAX TEMP:  87;

IMPERIAL       CLEAR     79  58  48 SE3       29.75R
6HR MIN TEMP:  78; 6HR MAX TEMP:  86;

BLYTHE         CLEAR     78  50  37 NE5       29.78S
6HR MIN TEMP:  78; 6HR MAX TEMP:  89;

$$

NVZ020-UTZ003-201300-
SOUTHERN NEVADA-UTAH

CITY           SKY/WX    TMP DP  RH WIND       PRES   REMARKS
LAS VEGAS      NOT AVBL
SALT LAKE CITY CLEAR     60  51  72 CALM      30.12S
6HR MIN TEMP:  58; 6HR MAX TEMP:  66;

$$

NMZ009-TXZ055-201300-
NEW MEXICO-WEST TEXAS

CITY           SKY/WX    TMP DP  RH WIND       PRES   REMARKS
ALBUQUERQUE    CLEAR     65  57  75 N6        30.13R
6HR MIN TEMP:  65; 6HR MAX TEMP:  70;

EL PASO        MOCLDY    67  65  93 CALM      30.01R
6HR MIN TEMP:  67; 6HR MAX TEMP:  74;

$$


........................KEY........................
SKY/WX - SKY CONDITION/WEATHER
TMP    - TEMPERATURE IN FAHRENHEIT
DP     - DEW POINT IN FAHRENHEIT
RH     - RELATIVE HUMIDITY IN PERCENT
WIND   - DIRECTION AND SPEED IN MILES PER HOUR (MPH)
VRB    - VARIABLE WIND DIRECTION
PRES   - MEAN SEA LEVEL PRESSURE IN INCHES OF MERCURY
         F - FALLING PRESSURE   R - RISING PRESSURE
         S - STEADY PRESSURE
VSB    - VISIBILITY IN MILES
HX     - HEAT INDEX IN FAHRENHEIT
WCI    - WIND CHILL INDEX IN FAHRENHEIT
TC     - TEMPERATURE IN CELSIUS WHICH IS ALSO KNOWN AS
         TEMPERATURE IN CENTIGRADE
AFB    - AIR FORCE BASE
         LUKE AFB IS LUKE AIR FORCE BASE
         DAVIS-MONTHAN IS DAVIS-MONTHAN AIR FORCE BASE
NAS    - NAVAL AIR STATION
         EL CENTRO NAS IS EL CENTRO NAVAL AIR STATION
N/A    - NOT AVAILABLE


USA.gov is the U.S. government's official web portal to all federal, state and local government web resources and services.